K5SJT Weather Reports


time (UTC)temp
F
wind
direction
speed
knots
gust
knots
rain 1hr
in
rain 24hr
in
rain mn
in
humidity
%
barometer
mb
20260504060105 64 192 0.0 2.6 0.00 0.00 0.00 59 1011.6
20260504050002 65 207 0.9 4.3 0.00 0.00 0.00 59 1012.6
20260504044600 65 193 0.0 3.5 0.00 0.00 0.00 59 1013.0
20260504043106 65 188 0.9 3.5 0.00 0.00 0.00 58 1012.9
20260504041557 66 169 0.9 4.3 0.00 0.00 0.00 57 1012.8
20260504040057 66 207 0.9 2.6 0.00 0.00 0.00 58 1013.2
20260504034557 66 185 0.9 3.5 0.00 0.00 0.00 58 1012.9
20260504033115 67 189 0.0 3.5 0.00 0.00 0.00 56 1012.8
20260504031603 67 160 0.0 4.3 0.00 0.00 0.00 55 1012.7
20260504030058 68 136 0.9 4.3 0.00 0.00 0.00 53 1012.7
20260504024602 68 171 0.9 3.5 0.00 0.00 0.00 52 1012.8
20260504023059 69 157 1.7 3.5 0.00 0.00 0.00 50 1012.8
20260504021558 70 180 1.7 5.2 0.00 0.00 0.00 47 1012.6
20260504020058 71 215 0.0 7.0 0.00 0.00 0.00 47 1012.5
20260504014559 71 191 0.9 4.3 0.00 0.00 0.00 45 1012.6
20260504013109 72 186 1.7 6.1 0.00 0.00 0.00 44 1012.8
20260504011558 72 179 1.7 5.2 0.00 0.00 0.00 43 1012.6
20260504004621 73 207 0.9 5.2 0.00 0.00 0.00 40 1012.9
20260504003101 74 175 2.6 5.2 0.00 0.00 0.00 39 1012.8
20260504001604 74 183 1.7 7.8 0.00 0.00 0.00 38 1012.7
20260503234557 75 275 2.6 7.8 0.00 0.00 0.00 38 1013.0
20260503233058 75 163 3.5 7.8 0.00 0.00 0.00 38 1012.9
20260503231559 75 241 1.7 5.2 0.00 0.00 0.00 38 1013.1
20260503230112 76 280 2.6 7.0 0.00 0.00 0.00 38 1013.1
20260503224558 76 180 2.6 7.8 0.00 0.00 0.00 38 1013.3
20260503223100 76 188 2.6 7.0 0.00 0.00 0.00 37 1013.6
20260503221558 76 240 1.7 7.0 0.00 0.00 0.00 37 1013.7
20260503214606 78 252 2.6 5.2 0.00 0.00 0.00 37 1013.7
20260503213057 77 234 2.6 6.1 0.00 0.00 0.00 35 1014.0
20260503211604 78 173 3.5 7.8 0.00 0.00 0.00 36 1014.4
20260503210057 79 306 1.7 6.1 0.00 0.00 0.00 36 1014.7
20260503204559 78 176 2.6 7.0 0.00 0.00 0.00 36 1015.0
20260503203057 79 274 1.7 9.6 0.00 0.00 0.00 37 1015.3
20260503201557 78 183 2.6 7.8 0.00 0.00 0.00 37 1015.7
20260503200057 77 192 3.5 7.8 0.00 0.00 0.00 37 1016.0
20260503194557 77 198 0.9 5.2 0.00 0.00 0.00 42 1016.0
20260503193059 77 146 1.7 6.1 0.00 0.00 0.00 39 1016.6
20260503191557 79 239 4.3 10.4 0.00 0.00 0.00 35 1016.7
20260503190101 78 183 2.6 6.1 0.00 0.00 0.00 38 1017.0
20260503184607 77 207 2.6 7.0 0.00 0.00 0.00 36 1017.2
20260503183058 77 144 1.7 8.7 0.00 0.00 0.00 40 1017.4
20260503181602 76 192 2.6 9.6 0.00 0.00 0.00 40 1017.6
20260503180057 76 215 2.6 11.3 0.00 0.00 0.00 40 1018.2
20260503174616 76 239 4.3 10.4 0.00 0.00 0.00 38 1018.5
20260503173101 75 172 3.5 7.8 0.00 0.00 0.00 40 1018.6
20260503171558 75 198 1.7 7.8 0.00 0.00 0.00 44 1019.1
20260503160105 72 192 2.6 7.0 0.00 0.00 0.00 46 1019.9
20260503150104 67 194 1.7 7.8 0.00 0.00 0.00 54 1020.3
20260503100119 51 236 0.0 0.0 0.00 0.00 0.00 81 1019.0
20260503081606 53 236 0.0 0.0 0.00 0.00 0.00 78 1019.2
20260503071556 55 236 0.0 0.0 0.00 0.00 0.00 76 1019.2